Terug naar catalogus

CZ-4C DEB

ActiefSSO
NORAD 43270·DEBRIS·🇨🇳 China

Gelanceerd Mar 31, 2018 vanaf Taiyuan Satellite Launch Center

Loading…

Volgende Passages (komende 24 uur)

TLE

VersSource: Space-Track

Epoch: Sep 12, 2026, 08:56 UTC

1 43270U 18031J   26255.37279250  .00000390  00000-0  57201-4 0  9995
2 43270  97.7097 306.9176 0005264  19.3309 340.8102 14.80710045465846

Volg CZ-4C DEB in realtime met AllMySat

Download on the App Store